EHI
0 0 0 0 0 0 0 0 0 0 0 0 0 0 0 0 0 0 0 0 0 0 0 0 0 0 0 0 0 0 0 0 0 0 0 0 0 0 0 0 0 0 0 0
0 0 0 0 0 0 0 0 0 0 0 0 0 0 0 0 0 0 0 0 0 0 0 0 0 0 0 0 0 0 0 0 0 0 0 0 0 0 0 0 0 0 0 0
0 0 0 0 0 0 0 0 0 0 0 0 0 0 0 0 0 0 0 0 0 0 0 0 0 0 0 0 0 0 0 0 0 0 0 0 0 0 0 0 0 0 0 0
0 0 0 0 0 0 0 0 0 0 0 0 0 0 0 0 0 0 0 0 0 0 0 0 0 0 0 0 0 0 0 0 0 0 0 0 0 0 0 0 0 0 0 0
0 0 0 0 0 0 0 0 0 0 0 0 0 0 0 0 0 0 0 0 0 0 0 0 0 0 0 0 0 0 0 0 0 0 0 0 0 0 0 0 0 0 0 0
0 0 0 0 0 0 0 0 0 0 0 0 0 0 0 0 0 0 0 0 0 0 0 0 0 0 0 0 0 0 0 0 0 0 0 0 0 0 0 0 0 0 0 0
0 0 0 0 0 0 0 0 0 0 0 0 0 0 0 0 0 0 0 0 0 0 0 0 0 0 0 0 0 0 0 0 0 0 0 0 0 0 0 0 0 0 0 0
0 0 0 0 0 0 0 0 0 0 0 0 0 0 0 0 0 0 0 0 0 0 0 0 0 0 0 0 0 0 0 0 0 0 0 0 0 0 0 0 0 0 0 0
0 0 0 0 0 0 0 0 0 0 0 0 0 0 0 0 0 0 0 0 0 0 0 0 0 0 0 0 0 0 0 0 0 0 0 0 0 0 0 0 0 0 0 0
0 0 0 0 0 0 0 0 0 0 0 0 0 0 0 0 0 0 0 0 0 0 0 0 0 0 0 0 0 0 0 0 0 0 0 0 0 0 0 0 0 0 0 0
0 0 0 0 0 0 0 0 0 0 0 0 0 0 0 0 0 0 0 0 0 0 0 0 0 0 0 0 0 0 0 0 0 0 0 0 0 0 0 0 0 0 0 0
0 0 0 0 0 0 0 0 0 0 0 0 0 0 0 0 0 0 0 0 0 0 0 0 0 0 0 0 0 0 0 0 0 0 0 0 0 0 0 0 0 0 0 0
0 0 0 0 0 0 0 0 0 0 0 0 0 0 0 0 0 0 0 0 0 0 0 0 0 0 0 0 0 0 0 0 0 0 0 0 0 0 0 0 0 0 0 0
0 0 0 0 0 0 0 0 0 0 0 0 0 0 0 0 0 0 0 0 0 0 0 0 0 0 0 0 0 0 0 0 0 0 0 0 0 0 0 0 0 0 0 0
0 0 0 0 0 0 0 0 0 0 0 0 0 0 0 0 0 0 0 0 0 0 0 0 0 0 0 0 0 0 0 0 0 0 0 0 0 0 0 0 0 0 0 0
0 0 0 0 0 0 0 0 0 0 0 0 0 0 0 0 0 0 0 0 0 0 0 0 0 0 0 0 0 0 0 0 0 0 0 0 0 0 0 0 0 0 0 0
0 0 0 0 0 0 0 0 0 0 0 0 0 0 0 0 0 0 0 0 0 0 0 0 0 0 0 0 0 0 0 0 0 0 0 0 0 0 0 0 0 0 0 0
0 0 0 0 0 0 0 0 0 0 0 0 0 0 0 0 0 0 0 0 0 0 0 0 0 0 0 0 0 0 0 0 0 0 0 0 0 0 0 0 0 0 0 0
0 0 0 0 0 0 0 0 0 0 0 0 0 0 0 0 0 0 0 0 0 0 0 0 0 0 0 0 0 0 0 0 0 0 0 0 0 0 0 0 0 0 0 0
0 0 0 0 0 0 0 0 0 0 0 0 0 0 0 0 0 0 0 0 0 0 0 0 0 0 0 0 0 0 0 0 0 0 0 0 0 0 0 0 0 0 0 0
0 0 0 0 0 0 0 0 0 0 0 0 0 0 0 0 0 0 0 0 0 0 0 0 0 0 0 0 0 0 0 0 0 0 0 0 0 0 0 0 0 0 0 0
0 0 0 0 0 0 0 0 0 0 0 0 0 0 0 0 0 0 0 0 0 0 0 0 0 0 0 0 0 0 0 0 0 0 0 0 0 0 0 0 0 0 0 0
0 0 0 0 0 0 0 0 0 0 0 0 0 0 0 0 0 0 0 0 0 0 0 0 0 0 0 0 0 0 0 0 0 0 0 0 0 0 0 0 0 0 0 0
0 0 0 0 0 0 0 0 0 0 0 0 0 0 0 0 0 0 0 0 0 0 0 0 0 0 0 0 0 0 0 0 0 0 0 0 0 0 0 0 0 0 0 0
0 0 0 0 0 0 0 0 0 0 0 0 0 0 0 0 0 0 0 0 0 0 0 0 0 0 0 0 0 0 0 0 0 0 0 0 0 0 0 0 0 0 0 0
0 0 0 0 0 0 0 0 0 0 0 0 0 0 0 0 0 0 0 0 0 0 0 0 0 0 0 0 0 0 0 0 0 0 0 0 0 0 0 0 0 0 0 0
Wind_Speed
4 2 4 4 3 2 2 4 6 1 3 7 12 13 9 14 17 17 16 16 15 14 11 10 8 5 3 1 4 6 8 9 8 7 8 8 8 8 7 7 11 12 12 13
2 4 3 1 1 2 3 6 5 1 2 6 10 14 9 12 19 18 17 16 16 14 12 11 9 6 3 1 4 6 7 8 8 7 7 7 8 7 7 7 9 11 12 13
2 4 1 2 2 3 4 5 5 5 1 5 9 8 6 5 11 14 16 16 15 15 14 13 10 7 3 1 3 4 7 8 8 9 7 7 6 7 7 9 8 11 12 12
4 2 2 2 1 3 3 1 4 4 6 3 3 7 5 4 7 12 16 16 16 14 13 12 10 7 3 1 2 4 6 7 7 8 8 10 9 9 10 9 9 12 12 12
3 1 0 1 1 2 3 2 2 4 4 6 3 6 1 3 5 9 14 15 14 13 13 12 10 7 4 2 1 3 5 6 7 8 9 9 9 9 8 10 12 11 11 11
3 1 2 2 1 1 1 2 3 3 4 5 1 5 4 3 2 1 4 10 12 12 12 11 9 7 4 2 1 3 5 6 7 8 9 9 11 11 12 12 12 11 9 10
3 3 2 1 2 3 2 5 4 3 3 2 3 6 6 1 2 4 4 5 9 11 12 11 10 7 5 2 2 3 5 6 7 8 8 9 10 11 12 12 11 12 10 10
2 2 2 1 2 2 1 4 5 6 7 6 2 7 2 2 1 3 5 5 8 11 11 11 9 7 5 3 2 3 5 6 7 8 8 8 9 8 8 11 11 11 10 11
2 1 3 2 2 2 1 1 3 5 4 7 6 6 4 3 6 6 6 7 10 12 12 11 9 7 5 3 2 3 5 6 7 8 8 9 9 9 10 11 11 10 11 11
2 2 2 2 3 3 3 2 3 3 6 7 8 7 4 4 5 7 9 10 11 12 12 11 9 7 5 4 3 3 4 6 7 7 7 7 9 9 10 10 11 12 13 13
2 4 2 4 5 3 4 4 3 2 4 6 8 7 1 4 3 5 7 10 12 13 13 11 9 7 6 4 3 3 4 5 6 7 8 8 9 9 10 10 11 12 12 14
1 3 3 2 2 2 3 4 5 5 4 5 7 9 3 3 3 5 6 7 11 12 12 11 9 8 6 5 4 4 4 5 6 7 8 9 9 9 10 10 11 12 13 13
4 4 4 4 4 4 5 5 5 3 3 5 7 9 5 3 6 7 7 7 10 12 12 11 9 8 7 6 4 4 4 5 6 7 8 9 9 9 10 11 11 12 12 13
3 5 6 5 3 3 6 7 8 8 6 7 13 17 13 9 8 8 8 9 11 12 13 12 10 9 7 6 5 5 5 5 6 7 8 9 9 10 10 11 11 11 12 13
4 5 6 9 6 5 8 11 12 14 12 11 12 13 19 16 12 8 6 9 12 13 13 13 11 9 8 7 6 5 5 5 6 7 8 9 9 9 10 10 11 11 12 12
5 5 3 5 3 5 9 13 14 16 14 16 18 21 17 10 4 5 8 11 14 15 15 13 12 10 9 8 6 5 5 5 6 7 8 8 9 9 10 10 11 11 11 12
6 5 4 4 2 6 11 10 14 11 13 12 13 11 4 5 7 8 9 13 15 15 15 14 13 11 9 8 6 5 5 5 6 7 8 8 8 9 10 10 10 11 11 12
6 4 2 5 5 7 2 3 8 9 11 15 15 15 11 10 7 7 9 13 14 14 14 14 12 10 9 7 6 4 4 5 6 7 8 8 8 9 10 10 10 11 11 11
3 4 3 3 5 11 5 6 8 8 11 13 18 18 11 1 5 8 11 13 13 13 13 12 11 10 9 8 6 5 5 6 7 7 7 8 8 9 10 10 11 11 10 11
2 3 4 4 4 8 3 5 5 3 9 8 12 12 6 5 5 3 7 11 11 11 11 11 11 10 9 8 7 6 6 6 7 7 7 8 8 9 10 10 11 10 10 10
6 6 6 7 7 12 2 8 8 5 5 5 10 10 10 11 7 2 7 10 11 12 12 12 11 10 9 8 7 7 7 7 6 6 8 8 8 9 9 10 9 10 9 10
10 10 10 7 8 12 9 12 13 10 1 5 7 9 11 12 6 5 8 11 13 13 13 13 11 10 8 8 8 8 7 6 5 6 8 8 8 7 7 9 9 9 9 10
11 10 7 13 11 2 13 13 10 3 6 7 7 9 10 10 10 10 10 12 13 14 13 12 11 10 8 9 9 8 6 4 5 6 7 7 8 7 7 8 9 8 8 7
8 5 6 9 15 11 13 16 16 13 14 11 9 8 10 12 11 12 11 12 14 14 14 12 12 11 10 10 10 8 6 5 5 7 7 7 7 7 7 6 6 6 7 7
8 10 7 11 12 11 13 17 19 17 15 15 13 11 13 13 13 14 13 14 14 13 13 12 12 11 11 10 10 8 7 6 6 6 6 6 6 7 7 6 6 7 7 8
10 13 12 14 11 10 11 6 7 11 14 15 13 13 13 14 14 14 13 13 14 14 13 13 13 12 11 10 9 8 8 7 6 5 5 4 5 5 5 7 7 6 8 12
Wind_Direction
15 83 75 65 19 358 296 271 278 278 148 230 248 259 231 193 205 213 211 209 210 210 192 179 177 172 159 67 11 2 352 351 347 344 340 337 338 336 337 337 336 334 334 332
174 89 72 58 172 213 243 268 277 199 163 255 285 276 257 205 209 215 217 217 216 208 191 186 185 183 175 49 9 356 351 346 348 344 334 329 324 324 326 328 330 333 332 330
35 81 107 176 166 233 250 277 308 310 236 224 291 268 179 197 221 225 229 229 224 213 201 190 188 187 178 66 11 350 344 339 344 340 331 328 324 323 333 335 331 331 329 327
88 88 172 195 183 305 300 333 298 286 286 293 322 303 147 181 217 223 226 225 224 213 204 192 187 183 174 108 13 336 335 335 341 339 338 338 334 333 334 330 324 325 326 325
105 72 188 234 24 300 343 11 274 262 265 275 221 273 249 164 241 228 223 222 219 209 199 188 182 172 158 140 336 325 327 332 340 340 339 335 331 329 325 326 324 326 325 324
90 81 7 21 68 348 190 212 176 198 234 255 162 273 285 172 216 221 218 216 209 198 189 179 168 160 161 166 264 311 322 331 339 338 338 335 331 329 327 329 327 327 324 322
154 149 100 253 222 163 247 289 284 266 250 316 117 259 266 75 237 261 271 224 199 187 181 175 171 172 176 197 258 301 320 331 338 336 335 332 329 327 326 328 326 326 323 324
252 164 105 30 342 345 13 320 342 319 315 318 211 256 288 117 236 264 264 231 190 186 183 179 175 176 183 203 253 299 321 330 333 332 331 326 328 325 320 323 322 321 320 321
294 123 108 60 30 308 200 102 360 285 282 279 270 268 259 171 236 231 224 204 195 189 185 181 176 178 187 206 247 299 316 323 327 326 325 323 327 324 321 321 319 318 319 319
295 273 149 133 161 71 355 135 195 264 304 299 293 280 276 214 225 215 220 213 200 190 186 183 181 181 188 206 235 278 304 314 318 320 323 319 320 321 319 317 319 320 320 321
251 259 174 187 214 201 165 176 202 217 273 287 302 300 183 253 252 245 234 215 199 191 188 184 182 182 189 204 230 269 294 305 312 318 318 316 318 319 318 317 320 321 321 322
198 259 253 196 91 348 256 228 209 251 234 239 276 278 132 225 242 253 256 217 199 192 186 183 181 183 194 210 230 260 284 298 309 313 311 312 315 317 318 320 322 322 321 322
179 230 263 185 177 186 218 209 210 229 255 228 244 268 122 195 240 244 247 218 193 187 183 183 186 193 202 213 230 254 275 293 303 306 307 310 314 318 320 321 321 321 321 322
198 235 253 284 324 185 212 198 194 201 228 235 236 268 283 278 269 259 236 213 193 187 186 188 193 198 204 212 228 249 270 287 297 302 304 308 314 317 317 317 318 320 320 321
215 244 248 267 274 253 252 235 207 215 232 248 259 268 282 299 303 286 236 198 191 191 192 194 197 198 202 210 222 239 262 279 290 296 301 306 310 312 312 314 317 318 319 320
208 240 261 264 223 227 256 243 227 230 239 249 266 276 276 292 283 244 214 197 198 198 197 197 198 199 203 209 218 232 256 276 287 290 294 301 305 309 311 314 316 317 318 320
189 214 252 266 222 277 263 224 194 204 215 216 236 255 266 254 248 246 222 205 206 201 196 195 196 198 200 203 210 228 252 272 279 283 289 295 300 305 309 312 312 315 318 318
184 200 244 289 310 255 258 111 185 215 234 221 243 262 264 267 285 263 230 212 207 199 194 193 191 191 191 191 199 219 246 263 271 278 284 291 300 304 308 310 312 315 315 315
247 207 211 240 276 278 263 185 185 210 267 225 231 252 262 291 284 251 216 209 204 194 189 185 183 180 178 184 191 209 239 255 266 276 287 298 302 303 307 309 313 314 313 311
116 215 220 197 234 254 241 142 156 176 271 220 210 235 210 178 258 282 168 188 190 180 174 169 167 171 179 183 187 212 239 253 265 280 292 297 299 300 304 307 310 311 310 307
174 187 206 211 238 264 208 136 153 208 272 177 199 212 184 202 227 109 154 174 175 171 167 165 167 177 182 177 187 217 238 252 269 284 290 293 296 300 302 304 307 309 309 307
183 178 196 184 211 253 158 153 197 229 207 188 204 206 205 217 203 173 175 173 170 169 169 171 174 180 176 178 193 220 238 252 268 279 285 292 298 301 298 305 308 311 312 311
209 203 194 199 220 278 173 206 226 258 235 223 213 213 209 213 208 194 187 182 179 177 174 177 181 179 180 188 201 222 235 244 263 276 286 295 300 299 301 307 312 315 316 314
216 201 215 245 260 253 228 241 250 243 245 248 229 214 200 208 206 194 187 184 182 182 179 179 182 187 191 195 204 220 227 235 256 274 287 296 301 304 309 310 310 313 313 315
200 173 212 247 265 283 258 235 243 248 247 248 239 224 213 210 206 195 189 187 185 183 181 182 188 194 196 193 201 209 215 224 247 267 281 291 296 303 309 312 311 310 306 310
188 187 197 243 237 230 265 242 222 230 237 233 227 224 216 209 207 195 193 187 184 182 180 185 193 198 196 193 198 200 203 213 235 258 275 286 295 303 308 313 312 305 304 316